Regional Weather Roundup
Issued by NWS Cleveland, OH

Home | Current Version | Previous Version | Graphics & Text | Print | Product List | Glossary On
Versions: 1 2 3 4 5 6 7 8 9 10 11 12 13 14 15 16 17 18 19 20 21 22 23 24 25 26 27 28 29 30 31 32 33 34 35 36 37 38 39 40 41 42 43 44 45 46 47 48 49 50
000
ASUS41 KCLE 281810
RWRCLE
OHIO REGIONAL WEATHER ROUNDUP
NATIONAL WEATHER SERVICE WILMINGTON, OH
100 PM EST SAT FEB 28 2015

NOTE: "FAIR" INDICATES FEW OR NO CLOUDS BELOW 12,000 FEET WITH NO
SIGNIFICANT WEATHER AND/OR OBSTRUCTIONS TO VISIBILITY.

OHZ001>008-015>018-024>027-034-035-043-044-281900-
   NORTHWEST OHIO

CITY           SKY/WX    TMP DP  RH WIND       PRES   REMARKS
DEFIANCE       SUNNY     19   1  45 S10       30.74F WCI   7
FINDLAY        SUNNY     17   1  49 S6        30.73F WCI   9
TOLEDO EXPRESS SUNNY     17   1  49 S6        30.74F WCI   9
TOLEDO EXEC    SUNNY     17   1  49 SW7       30.76F WCI   8
LIMA           PTSUNNY   19   1  45 SE7       30.71S WCI  10
$$

OHZ009>014-019>023-028>033-038-089-281900-
   NORTHEAST OHIO

CITY           SKY/WX    TMP DP  RH WIND       PRES   REMARKS
CLE-HOPKINS    MOSUNNY   20   0  41 SE3       30.77F
CLE-LAKEFRONT  SUNNY     19   3  49 N7        30.75F WCI  10
CUY CO. ARPT   PTSUNNY   23   1  39 S7        30.73F WCI  15
LORAIN-ELYRIA  SUNNY     17   1  49 SE5       30.75F WCI  10
ASHTABULA      SUNNY     17  -2  43 S6        30.74F WCI   9
AKRON-CANTON   MOSUNNY   19  -2  39 E7        30.71F WCI  10
WOOSTER        SUNNY     16   0  49 SE7       30.71F WCI   6
MANSFIELD      SUNNY     18  -3  39 E6        30.68F WCI  10
YOUNGSTOWN     MOSUNNY   18  -2  41 E6        30.71F WCI  10
$$

OHZ042-051>053-060>062-070>072-077>081-281900-
  SOUTHWEST OHIO

CITY           SKY/WX    TMP DP  RH WIND       PRES   REMARKS
CINC-COVINGTON PTSUNNY   24   6  46 E6        30.65F WCI  17
CINC-LUNKEN    CLOUDY    25   6  44 E6        30.70F WCI  18
HAMILTON       PTSUNNY   25   5  42 E6        30.70F WCI  18
DAYTON         CLOUDY    21   2  43 E7        30.69F WCI  12
WRIGHT-PAT AFB PTSUNNY   21   1  42 E7        30.70F WCI  12
DAYTON GENERAL PTSUNNY   21   4  47 E9        30.66F WCI  11
WILMINGTON     CLOUDY    18   3  52 NE6       30.66F WCI  10
$$

OHZ036-037-039>041-045>050-054>059-063>069-073>076-082>088-281900-
  CENTRAL AND SOUTHEAST OHIO

CITY           SKY/WX    TMP DP  RH WIND       PRES   REMARKS
COLUMBUS       CLOUDY    21   2  43 E6        30.71F WCI  13
OSU AIRPORT    PTSUNNY   20  -1  40 VRB5      30.70F WCI  13
BOLTON FIELD   CLOUDY    21   1  42 E5        30.71F WCI  15
RICKENBACK AFB CLOUDY    20   3  48 CALM      30.71F
NEWARK         MOSUNNY   22   1  40 E5        30.70F WCI  16
MARION         MOSUNNY   18  -2  41 SE8       30.71F WCI   8
LANCASTER      PTSUNNY   23   6  48 N6        30.70F WCI  16
ZANESVILLE     CLOUDY    22  -1  36 E5        30.70F WCI  16
NEW PHILLY     PTSUNNY   23   2  40 SE8       30.72F WCI  14
$$


USA.gov is the U.S. government's official web portal to all federal, state and local government web resources and services.